EW5390 Weather Reports


Display with metric or nautical units.
time (UTC)temp
F
wind
direction
speed
MPH
gust
MPH
rain 1hr
in
rain 24hr
in
rain mn
in
humidity
%
barometer
mb
20260504014552 49 0 0.0 0.0 0.00 0.00 0.00 61 1015.3
20260504014053 49 0 0.0 0.0 0.00 0.00 0.00 60 1015.2
20260504013553 50 0 0.0 0.0 0.00 0.00 0.00 59 1015.3
20260504013102 50 0 0.0 0.0 0.00 0.00 0.00 59 1015.3
20260504012556 50 323 0.0 0.0 0.00 0.00 0.00 58 1015.2
20260504012051 50 0 0.0 0.0 0.00 0.00 0.00 58 1015.2
20260504011557 50 0 0.0 0.0 0.00 0.00 0.00 57 1015.1
20260504011053 50 0 0.0 0.0 0.00 0.00 0.00 57 1015.1
20260504010553 50 0 0.0 0.0 0.00 0.00 0.00 57 1015.0
20260504010113 51 0 0.0 0.0 0.00 0.00 0.00 57 1014.9
20260504005554 51 0 0.0 0.0 0.00 0.00 0.00 56 1014.9
20260504005051 51 323 0.0 0.0 0.00 0.00 0.00 56 1014.9
20260504004558 51 323 0.0 0.0 0.00 0.00 0.00 54 1014.9
20260504004054 52 323 0.0 0.0 0.00 0.00 0.00 54 1014.7
20260504003551 52 0 0.0 0.0 0.00 0.00 0.00 54 1014.7
20260504003055 52 0 0.0 0.0 0.00 0.00 0.00 53 1014.7
20260504002553 53 0 0.0 0.0 0.00 0.00 0.00 53 1014.6
20260504002053 53 323 0.0 0.0 0.00 0.00 0.00 52 1014.5
20260504001609 54 0 0.0 0.0 0.00 0.00 0.00 51 1014.5
20260504001055 54 0 0.0 0.0 0.00 0.00 0.00 50 1014.4
20260504000552 55 0 0.0 0.0 0.00 0.00 0.00 49 1014.3
20260504000059 55 323 0.0 0.0 0.00 0.00 0.00 48 1014.3
20260503235554 56 0 0.0 0.0 0.00 0.00 0.00 46 1014.3
20260503235053 56 0 0.0 0.0 0.00 0.00 0.00 46 1014.2
20260503234554 57 0 0.0 0.0 0.00 0.00 0.00 45 1014.2
20260503234054 57 0 0.0 0.0 0.00 0.00 0.00 44 1014.3
20260503233557 58 0 0.0 0.0 0.00 0.00 0.00 43 1014.2
20260503233058 58 0 0.0 1.0 0.00 0.00 0.00 43 1014.2
20260503232553 58 0 0.0 2.0 0.00 0.00 0.00 41 1014.2
20260503232053 59 0 0.0 3.0 0.00 0.00 0.00 43 1014.3
20260503231556 59 323 1.0 3.0 0.00 0.00 0.00 41 1014.3
20260503231054 59 330 1.0 5.0 0.00 0.00 0.00 40 1014.2
20260503230557 59 306 1.0 5.0 0.00 0.00 0.00 44 1014.2
20260503230056 59 245 1.0 6.0 0.00 0.00 0.00 43 1014.0
20260503225553 59 323 1.0 6.0 0.00 0.00 0.00 43 1014.1
20260503225057 59 311 2.0 6.0 0.00 0.00 0.00 41 1014.0
20260503224558 59 333 2.0 5.0 0.00 0.00 0.00 45 1014.1
20260503224053 59 0 2.0 6.0 0.00 0.00 0.00 42 1014.0
20260503223553 59 311 1.0 6.0 0.00 0.00 0.00 41 1014.1
20260503223054 59 266 2.0 6.0 0.00 0.00 0.00 42 1014.1
20260503222553 59 30 1.0 7.0 0.00 0.00 0.00 40 1014.0
20260503222053 59 325 2.0 7.0 0.00 0.00 0.00 40 1014.1
20260503221556 59 254 3.0 7.0 0.00 0.00 0.00 41 1014.1
20260503221054 59 316 2.0 6.0 0.00 0.00 0.00 40 1014.0
20260503220553 59 323 2.0 6.0 0.00 0.00 0.00 40 1014.0
20260503220054 59 310 1.0 9.0 0.00 0.00 0.00 42 1014.1
20260503215553 59 323 1.0 9.0 0.00 0.00 0.00 40 1014.1
20260503215053 59 326 5.0 11.0 0.00 0.00 0.00 39 1014.1
20260503214557 59 315 3.0 11.0 0.00 0.00 0.00 42 1014.2
20260503214057 59 311 3.0 11.0 0.00 0.00 0.00 40 1014.0
20260503213553 59 316 2.0 6.0 0.00 0.00 0.00 42 1014.0
20260503213125 59 291 1.0 4.0 0.00 0.00 0.00 43 1013.9
20260503212556 59 319 1.0 7.0 0.00 0.00 0.00 41 1013.9
20260503212056 59 272 1.0 7.0 0.00 0.00 0.00 42 1014.0
20260503211619 59 326 2.0 7.0 0.00 0.00 0.00 40 1014.0
20260503211053 58 297 3.0 10.0 0.00 0.00 0.00 41 1013.9
20260503210555 58 0 2.0 10.0 0.00 0.00 0.00 40 1013.8
20260503210054 58 49 2.0 8.0 0.00 0.00 0.00 40 1014.0
20260503205554 58 307 3.0 8.0 0.00 0.00 0.00 41 1013.9
20260503205051 59 307 1.0 7.0 0.00 0.00 0.00 41 1013.9
20260503204608 59 331 1.0 7.0 0.00 0.00 0.00 43 1014.0
20260503204051 58 309 3.0 8.0 0.00 0.00 0.00 40 1013.9
20260503203553 58 324 2.0 8.0 0.00 0.00 0.00 43 1013.9
20260503203057 58 289 3.0 10.0 0.00 0.00 0.00 40 1014.0
20260503202553 58 0 2.0 10.0 0.00 0.00 0.00 40 1014.1
20260503202053 58 309 1.0 8.0 0.00 0.00 0.00 41 1014.0
20260503201556 58 294 2.0 8.0 0.00 0.00 0.00 40 1014.1
20260503201055 58 276 2.0 7.0 0.00 0.00 0.00 39 1014.1
20260503200553 58 320 4.0 8.0 0.00 0.00 0.00 39 1014.2
20260503200059 58 275 2.0 9.0 0.00 0.00 0.00 40 1014.3
20260503195553 58 297 4.0 9.0 0.00 0.00 0.00 41 1014.3
20260503195101 57 4 4.0 9.0 0.00 0.00 0.00 39 1014.3
20260503194553 57 309 2.0 9.0 0.00 0.00 0.00 40 1014.3
20260503194128 57 304 5.0 9.0 0.00 0.00 0.00 39 1014.3
20260503193554 57 283 3.0 7.0 0.00 0.00 0.00 42 1014.2
20260503193057 57 300 2.0 8.0 0.00 0.00 0.00 40 1014.2
20260503192552 57 245 2.0 11.0 0.00 0.00 0.00 40 1014.3
20260503192052 57 304 3.0 11.0 0.00 0.00 0.00 39 1014.4
20260503191603 57 330 2.0 7.0 0.00 0.00 0.00 41 1014.3
20260503191054 57 307 2.0 9.0 0.00 0.00 0.00 42 1014.3
20260503190556 56 259 4.0 9.0 0.00 0.00 0.00 40 1014.4
20260503190054 56 248 2.0 12.0 0.00 0.00 0.00 42 1014.3
20260503185554 55 66 2.0 12.0 0.00 0.00 0.00 41 1014.5
20260503185053 56 54 3.0 9.0 0.00 0.00 0.00 40 1014.6
20260503184623 56 32 2.0 9.0 0.00 0.00 0.00 41 1014.8
20260503184053 55 315 3.0 8.0 0.00 0.00 0.00 42 1014.9
20260503183554 55 277 4.0 9.0 0.00 0.00 0.00 41 1014.9
20260503183105 55 232 3.0 14.0 0.00 0.00 0.00 42 1014.8
20260503182552 55 327 4.0 14.0 0.00 0.00 0.00 43 1014.9
20260503182052 55 304 5.0 14.0 0.00 0.00 0.00 44 1014.9
20260503181553 55 329 2.0 11.0 0.00 0.00 0.00 44 1014.9
20260503181052 55 307 2.0 11.0 0.00 0.00 0.00 44 1015.0
20260503180553 54 330 1.0 9.0 0.00 0.00 0.00 44 1015.0
20260503180058 54 314 4.0 9.0 0.00 0.00 0.00 42 1015.0
20260503175551 54 317 3.0 8.0 0.00 0.00 0.00 43 1015.1
20260503175054 54 342 1.0 9.0 0.00 0.00 0.00 43 1015.1
20260503174610 54 274 3.0 9.0 0.00 0.00 0.00 43 1015.1
20260503174111 55 1 2.0 9.0 0.00 0.00 0.00 45 1015.1
20260503173553 54 314 3.0 9.0 0.00 0.00 0.00 44 1015.0
20260503173130 54 230 4.0 11.0 0.00 0.00 0.00 43 1015.0
20260503172554 54 312 3.0 11.0 0.00 0.00 0.00 42 1015.0
20260503172055 54 323 3.0 9.0 0.00 0.00 0.00 44 1015.1
20260503171559 54 17 3.0 9.0 0.00 0.00 0.00 44 1015.1
20260503171052 53 316 1.0 8.0 0.00 0.00 0.00 46 1015.1
20260503170554 53 297 3.0 7.0 0.00 0.00 0.00 43 1015.2
20260503150553 51 304 3.0 8.0 0.00 0.00 0.00 51 1015.5
20260503131054 46 34 3.0 9.0 0.00 0.00 0.00 66 1015.5
20260503130555 46 328 2.0 9.0 0.00 0.00 0.00 66 1015.6
20260503110554 43 330 0.0 4.0 0.00 0.00 0.00 77 1014.2
20260503100105 42 309 0.0 3.0 0.00 0.00 0.00 79 1013.3
20260503090105 43 0 0.0 0.0 0.00 0.00 0.00 78 1012.7
20260503081600 44 319 0.0 3.0 0.00 0.00 0.00 76 1012.1
20260503081057 44 0 0.0 2.0 0.00 0.00 0.00 76 1012.0
20260503080600 44 309 0.0 3.0 0.00 0.00 0.00 76 1012.1
20260503072551 44 0 0.0 2.0 0.00 0.00 0.00 76 1012.0
20260503072052 44 3 0.0 2.0 0.00 0.00 0.00 76 1011.9
20260503071610 44 328 0.0 1.0 0.00 0.00 0.00 76 1011.9
20260503071051 44 0 0.0 1.0 0.00 0.00 0.00 75 1011.8
20260503070552 44 0 0.0 0.0 0.00 0.00 0.00 75 1011.9
20260503070114 45 0 0.0 0.0 0.00 0.00 0.00 74 1011.9
20260503060124 47 0 0.0 1.0 0.00 0.00 0.00 70 1011.8
20260503055054 48 0 0.0 0.0 0.00 0.00 0.00 68 1011.9
20260503054559 48 0 0.0 0.0 0.00 0.00 0.00 68 1011.9
20260503054054 48 0 0.0 0.0 0.00 0.00 0.00 68 1011.9
20260503053555 48 0 0.0 0.0 0.00 0.00 0.00 67 1012.0
20260503053054 49 0 0.0 1.0 0.00 0.00 0.00 67 1011.9
20260503052553 49 0 0.0 1.0 0.00 0.00 0.00 67 1011.9
20260503052051 49 329 0.0 1.0 0.00 0.00 0.00 66 1011.9
20260503051553 50 328 0.0 0.0 0.00 0.00 0.00 65 1012.0
20260503051056 50 0 0.0 3.0 0.00 0.00 0.00 64 1012.0
20260503050553 50 322 0.0 3.0 0.00 0.00 0.00 63 1011.9
20260503050101 50 322 0.0 3.0 0.00 0.00 0.00 62 1012.0
20260503045553 50 27 1.0 3.0 0.00 0.00 0.00 61 1012.0
20260503045052 51 323 0.0 4.0 0.00 0.00 0.00 61 1012.0
20260503044556 51 330 0.0 4.0 0.00 0.00 0.00 60 1012.1
20260503044055 51 311 1.0 4.0 0.00 0.00 0.00 60 1012.0
20260503043554 51 320 1.0 4.0 0.00 0.00 0.00 60 1012.0
20260503043054 51 342 1.0 4.0 0.00 0.00 0.00 60 1012.0
20260503042554 52 18 2.0 4.0 0.00 0.00 0.00 60 1012.0
20260503042055 52 323 1.0 4.0 0.00 0.00 0.00 61 1012.0
20260503041552 52 329 2.0 4.0 0.00 0.00 0.00 60 1012.0
20260503041055 52 21 1.0 4.0 0.00 0.00 0.00 60 1012.2
20260503040551 52 348 1.0 9.0 0.00 0.00 0.00 60 1012.2
20260503040055 52 41 1.0 9.0 0.00 0.00 0.00 60 1012.1
20260503035552 52 334 1.0 9.0 0.00 0.00 0.00 59 1012.1
20260503035058 52 44 0.0 3.0 0.00 0.00 0.00 59 1012.1
20260503034554 52 360 0.0 2.0 0.00 0.00 0.00 60 1012.1
20260503034054 52 80 0.0 2.0 0.00 0.00 0.00 59 1012.2
20260503033556 52 0 0.0 2.0 0.00 0.00 0.00 60 1012.2
20260503033100 52 18 0.0 2.0 0.00 0.00 0.00 59 1012.2
20260503032554 52 345 0.0 3.0 0.00 0.00 0.00 60 1012.2
20260503032057 52 342 0.0 3.0 0.00 0.00 0.00 59 1012.2
20260503031554 52 323 0.0 3.0 0.00 0.00 0.00 60 1012.3
20260503031053 52 0 0.0 0.0 0.00 0.00 0.00 60 1012.2
20260503030553 52 0 0.0 0.0 0.00 0.00 0.00 60 1012.3
20260503030054 52 0 0.0 1.0 0.00 0.00 0.00 59 1012.3
20260503025554 52 319 0.0 1.0 0.00 0.00 0.00 59 1012.1
20260503025057 52 0 0.0 1.0 0.00 0.00 0.00 58 1012.1
20260503024600 53 0 0.0 1.0 0.00 0.00 0.00 58 1012.1
20260503024055 53 0 0.0 2.0 0.00 0.00 0.00 58 1012.1
20260503023552 53 24 0.0 2.0 0.00 0.00 0.00 57 1012.1
20260503023055 53 338 0.0 3.0 0.00 0.00 0.00 57 1012.1
20260503022708 53 0 0.0 3.0 0.00 0.00 0.00 57 1012.1
20260503022055 53 0 0.0 3.0 0.00 0.00 0.00 56 1012.2
20260503021554 53 327 0.0 2.0 0.00 0.00 0.00 56 1012.1
20260503021054 53 0 1.0 2.0 0.00 0.00 0.00 56 1012.2
20260503020554 53 338 0.0 3.0 0.00 0.00 0.00 57 1012.3
20260503020058 53 305 0.0 3.0 0.00 0.00 0.00 56 1012.2
20260503015554 53 0 0.0 3.0 0.00 0.00 0.00 56 1012.1
20260503015058 53 308 0.0 3.0 0.00 0.00 0.00 56 1012.1